Regional Weather Roundup
Issued by NWS Upton, NY

Current Version | Previous Version | Graphics & Text | Print | Product List | Glossary Off
Versions: 1 2 3 4 5 6 7 8 9 10 11 12 13 14 15 16 17 18 19 20 21 22 23 24 25 26 27 28 29 30 31 32 33 34 35 36 37 38 39 40 41 42 43 44 45 46 47 48 49 50

000
ASUS41 KOKX 132005
RWROKX

REGIONAL WEATHER ROUNDUP
NATIONAL WEATHER SERVICE NEW YORK NY
400 PM EDT SUN JUL 13 2014

NOTE: "FAIR" INDICATES FEW OR NO CLOUDS BELOW 12,000 FEET WITH NO
SIGNIFICANT WEATHER AND/OR OBSTRUCTIONS TO VISIBILITY.

NYZ071-072-176-178-NJZ106-104-132100-
NEW YORK CITY METRO AREA


CITY           SKY/WX    TMP DP  RH WIND       PRES   REMARKS
CENTRAL PARK   MOSUNNY   78  68  71 S9        29.99F
LAGUARDIA APRT PTSUNNY   78  69  73 S15G26    29.96F
KENNEDY INTL   PTSUNNY   78  69  73 S24G35    29.98F
NEWARK/LIBERTY CLOUDY    82  71  69 SE7       29.95F
BRNX BOT. GARD   N/A     75  68  78 SE8       29.96F
TETERBORO      PTSUNNY   84  69  60 S9        29.93F
$$

NYZ177-179-078>081-132100-
LONG ISLAND NEW YORK

CITY           SKY/WX    TMP DP  RH WIND       PRES   REMARKS
FARMINGDALE    PTSUNNY   76  69  79 S15G25    29.99F
ISLIP          PTSUNNY   79  68  69 S18G24    29.98F
SHIRLEY        PTSUNNY   77  69  76 S17G25    30.01F
WESTHAMPTON    MOSUNNY   76  68  76 S15G24    30.03F
MONTAUK POINT    N/A     75  69  81 S7G18     30.03F
$$

NYZ052-065-067-132100-
HUDSON VALLEY

CITY           SKY/WX    TMP DP  RH WIND       PRES   REMARKS
WHITE PLAINS   MOSUNNY   77  69  76 S10       29.97F
NEWBURGH       NOT AVBL
MONTGOMERY     PTSUNNY   83  71  67 S13G25    29.91F
POUGHKEEPSIE   PTSUNNY   82  70  66 S8        29.91F
ALBANY         CLOUDY    78  70  76 S14G23    29.88F
$$

NJZ001-105-106-008-010-013-015-019>022-104-132100-
NEW JERSEY

CITY           SKY/WX    TMP DP  RH WIND       PRES   REMARKS
NEWARK/LIBERTY CLOUDY    82  71  69 SE7       29.95F
TETERBORO      PTSUNNY   84  69  60 S9        29.93F
CALDWELL       PTSUNNY   82  72  69 SE6       29.94F
MORRISTOWN     PTSUNNY   86  72  62 S8        29.93F HX  92
SOMERVILLE     PTSUNNY   86  72  62 S8        29.92F HX  92
LINDEN         FAIR      85  71  63 SE10      29.95F HX  90
SUSSEX         PTSUNNY   85  73  67 S8        29.91F HX  91
ANDOVER          N/A     83  72  69 S7G18     29.93F
TRENTON        PTSUNNY   89  71  55 SW14      29.94F HX  95
MILLVILLE      MOSUNNY   86  73  65 S7G17     29.98F HX  93
ATLANTIC CITY  MOSUNNY   80  72  76 S16G22    29.99F
WRIGHTSTOWN    MOSUNNY   87  71  59 SW14G21   29.93F HX  92
TOMS RIVER     PTSUNNY   82  72  69 S13G21    29.98F
BELMAR         MOSUNNY   82  72  69 S9G20     29.97F
$$

PAZ047>061-062-071-132100-
EASTERN PENNSYLVANIA

CITY           SKY/WX    TMP DP  RH WIND       PRES   REMARKS
PHILADELPHIA   PTSUNNY   89  68  49 SW14      29.95F HX  93
ALLENTOWN      PTSUNNY   87  71  58 SW14      29.92F HX  93
SCRANTON       PTSUNNY   83  70  64 S13G26    29.91F
$$

CTZ002-004>006-009-010-012-RIZ004-006-007-MAZ004-011-015-132100-
SOUTHERN NEW ENGLAND
 IN CT

CITY           SKY/WX    TMP DP  RH WIND       PRES   REMARKS
BRADLEY INTL   PTSUNNY   83  68  60 S18       29.93F
HARTFORD       PTSUNNY   80  68  66 S15       29.95F
DANBURY        MOSUNNY   81  67  62 SW9G20    29.98F
WTRBRY/OXFORD  NOT AVBL
BRIDGEPORT     MOSUNNY   79  69  71 S15       29.97F
MERIDEN        MOSUNNY   82  68  62 S15G26    29.96F
NEW HAVEN      MOSUNNY   81  70  69 S12       29.98F
CHESTER        FAIR      79  68  69 S15G21    30.01F
GROTON         MOSUNNY   73  67  81 S12       30.00F
WILLIMANTIC    MOSUNNY   81  67  62 S17G23    29.98F

 IN RI

CITY           SKY/WX    TMP DP  RH WIND       PRES   REMARKS
PROVIDENCE     MOSUNNY   81  61  50 SW20G28   30.01F
BLOCK ISLAND   SUNNY     75  68  78 S17       30.04F
WESTERLY       SUNNY     76  68  76 S14G22    30.03F

 IN MA

CITY           SKY/WX    TMP DP  RH WIND       PRES   REMARKS
BOSTON         PTSUNNY   84  61  45 S20G29    29.95F
WORCESTER      PTSUNNY   77  66  68 S16G25    29.98F
WESTFIELD      NOT AVBL
PROVINCETOWN   SUNNY     77  63  61 SW17G23   30.01F
NANTUCKET      SUNNY     73  66  78 S14       30.06F
$$

ANZ330-335-338-340-345-350-353-355-132100-
COASTAL MARINE OBSERVATIONS


STATION/POSITION TIME  SKY/WX   TEMP    WIND        PRES    VSBY  WAVE
                                AIR SEA DIR/SP/G                  HT/PER
                 (UTC)          (F)     (DEG/KT/KT) (MB)    (MI)  (FT/S)
NY HARB ENTRANCE NOT AVBL
4S FIRE IS       1900               70                N/A           4/ 5
23SW MTP         2000            71 69              1016.3          3/ 4
HUDSON CANYON    2000            73 72  190/ 14/ 17 1017.1          3/ 6
EXECUTION ROCKS  2000            76 67  200/ 16/ 21   N/A
WESTERN LI SOUND 2000            77     180/ 16/ 19   N/A           1
CENTRAL LI SOUND 1900            74 72  190/ 10/ 14   N/A           2/ 3
EASTERN LI SOUND 1900            70 64  200/ 12/ 16   N/A
ROBBINS REEF     2000            73     160/ 14/ 16   N/A
$$


>>>>>>>>>>>>>>>>>>>>>>>>>>>> KEY <<<<<<<<<<<<<<<<<<<<<<<<<<<
>                                                          <
>     SKY/WX - SKY CONDITION/PRESENT WEATHER               <
>     TMP    - TEMPERATURE IN FAHRENHEIT                   <
>     DP     - DEWPOINT IN FAHRENHEIT                      <
>     RH     - RELATIVE HUMIDITY IN PERCENT                <
>     WIND   - DIRECTION AND SPEED IN MPH                  <
>     PRES   - MEAN SEA LEVEL PRESSURE IN INCHES OF HG     <
>     WCI    - WIND CHILL INDEX                            <
>     VSB    - VISIBILITY IN MILES                         <
>     HX     - HEAT INDEX                                  <
>     TC     - TEMPERATURE IN CELSIUS                      <
>     VRB    - VARIABLE WIND DIRECTION                     <
>                                                          <
>>>>>>>>>>>>>>>>>>>>>>>>>>>> KEY <<<<<<<<<<<<<<<<<<<<<<<<<<<





USA.gov is the U.S. government's official web portal to all federal, state and local government web resources and services.